Tracking 19564 objects as of 19-Mar-2019
HD Live streaming from Space Station
objects crossing your sky now

SL-14 R/B

Track SL-14 R/B now!
10-day predictions
SL-14 R/B is classified as:


NORAD ID: 16792
Int'l Code: 1986-046B
Perigee: 609.6 km
Apogee: 643.2 km
Inclination: 82.5 °
Period: 97.1 minutes
Semi major axis: 6997 km
RCS: 5.061 m2 (large)
Launch date: June 12, 1986
Source: Commonwealth of Independent States (former USSR) (CIS)
Launch site: PLESETSK MISSILE AND SPACE COMPLEX (PKMTR)

Note: This is a ROCKET BODY
aabbcc
Your satellite tracking list
Your tracking list is empty




NASA's NSSDC Master Catalog

Two Line Element Set (TLE):
1 16792U 86046B   19077.22734684 +.00000081 +00000-0 +69385-5 0  9994
2 16792 082.4834 321.0758 0023994 352.5577 152.2374 14.83206180748515
Source of the keplerian elements: AFSPC